This demonstration page uses our WeatherBlox Daily Observations layout. Learn more.

Left ArrowRight Arrow

40.97296, -117.73568

Hourly Observations for August 6, 2020

Temp ( °F °C ) Dew Point ( °F °C ) Humidity (%) Winds ( mph kmh ) Pressure ( in mb ) Visibility ( mi km ) Precip ( " mm )
12:56 am 00:56 Clear 64 17.8 37 2.8 37 37 WSW 7 11 29.73 1007 10 16 0.00 0.00
1:56 am 01:56 Clear 66 18.9 39 3.9 37 37 Calm 29.72 1006 10 16 0.00 0.00
2:56 am 02:56 Clear 62 16.7 38 3.3 41 41 SSW 3 6 29.73 1007 10 16 0.00 0.00
3:56 am 03:56 Clear 59 15 38 3.3 46 46 S 3 6 29.75 1008 10 16 0.00 0.00
4:56 am 04:56 Clear 58 14.4 36 2.2 44 44 S 3 6 29.75 1008 10 16 0.00 0.00
5:56 am 05:56 Sunny 53 11.7 36 2.2 52 52 VRB 5 7 29.78 1008 10 16 0.00 0.00
6:56 am 06:56 Sunny 63 17.2 37 2.8 38 38 Calm 29.77 1008 10 16 0.00 0.00
7:56 am 07:56 Sunny 71 21.7 39 3.9 31 31 WNW 5 7 29.78 1008 10 16 0.00 0.00
8:56 am 08:56 Sunny 76 24.4 40 4.4 27 27 W 8 13 29.77 1008 10 16 0.00 0.00
9:56 am 09:56 Sunny 80 26.7 40 4.4 24 24 WNW 3 6 29.77 1008 10 16 0.00 0.00
10:56 am 10:56 Sunny 83 28.3 40 4.4 22 22 WNW 10 17 29.75 1008 10 16 0.00 0.00
11:56 am 11:56 Sunny 86 30 40 4.4 20 20 W 9 15 29.75 1007 10 16 0.00 0.00
12:56 pm 12:56 Sunny 87 30.6 38 3.3 18 18 VRB 3 6 29.74 1007 10 16 0.00 0.00
1:56 pm 13:56 Sunny 90 32.2 38 3.3 16 16 NW 9 15 29.72 1006 10 16 0.00 0.00
2:56 pm 14:56 Sunny 91 32.8 36 2.2 14 14 WSW 15 24 29.71 1006 10 16 0.00 0.00
3:56 pm 15:56 Sunny 92 33.3 35 1.7 13 13 W 13 20 29.70 1006 10 16 0.00 0.00
4:56 pm 16:56 Sunny 92 33.3 33 0.6 12 12 W 15 24 29.69 1006 10 16 0.00 0.00
5:56 pm 17:56 Sunny 91 32.8 31 -0.6 12 12 WNW 15 24 29.70 1006 10 16 0.00 0.00
6:56 pm 18:56 Sunny 89 31.7 30 -1.1 12 12 WNW 15 24 29.69 1005 10 16 0.00 0.00
7:56 pm 19:56 Sunny 82 27.8 28 -2.2 14 14 W 9 15 29.70 1006 10 16 0.00 0.00
8:56 pm 20:56 Clear 72 22.2 26 -3.3 18 18 W 7 11 29.73 1007 10 16 0.00 0.00
9:56 pm 21:56 Clear 70 21.1 27 -2.8 20 20 WSW 3 6 29.75 1008 10 16 0.00 0.00
10:56 pm 22:56 Clear 72 22.2 32 0 23 23 WNW 5 7 29.76 1008 10 16 0.00 0.00
11:56 pm 23:56 Clear 71 21.7 35 1.7 27 27 NNW 12 19 29.78 1008 10 16 0.00 0.00

Powered by AerisWeather